Weather reports worldwide

Advertisment
Jan Mayen, Norway (1001): temperature & dewpoint: 25.09.2020 14:00:00 - 01.10.2020 14:00:00 (CEST)Jan Mayen, Norway (1001): water temperature: 25.09.2020 14:00:00 - 01.10.2020 14:00:00 (CEST)Jan Mayen, Norway (1001): wind speed & gusts: 25.09.2020 14:00:00 - 01.10.2020 14:00:00 (CEST)Jan Mayen, Norway (1001): wind direction: 25.09.2020 14:00:00 - 01.10.2020 14:00:00 (CEST)Jan Mayen, Norway (1001): reduced air pressure: 25.09.2020 14:00:00 - 01.10.2020 14:00:00 (CEST)Jan Mayen, Norway (1001): visibility: 25.09.2020 14:00:00 - 01.10.2020 14:00:00 (CEST)
Date & Time tt [°C] td [°C] tw [°C] ff [km/h] ff [kn] fx [km/h] fx [kn] dd ppp [hPa] vv [km]
01.10.2020 14:00:00 5,7 4,6 3,2 33 18 58 31 ENE 1015,3 12
01.10.2020 13:00:00 - - - - - - - - - -
01.10.2020 12:00:00 5,4 3,7 - 48 26 71 38 ENE 1015,2 -
01.10.2020 11:00:00 - - - - - - - - - -
01.10.2020 10:00:00 5,3 3,2 - 39 21 64 35 ENE 1015,1 -
01.10.2020 09:00:00 5,3 2,4 - 49 26 64 35 ENE 1015,2 -
01.10.2020 08:00:00 5,1 2,7 - 45 24 59 32 E 1015,4 30
01.10.2020 07:00:00 5,1 2,5 - 37 20 54 29 ENE 1015,0 -
01.10.2020 06:00:00 5,2 2,4 - 32 17 49 26 ENE 1015,5 -
01.10.2020 05:00:00 5,3 1,9 - 34 18 50 27 ENE 1015,6 -
01.10.2020 04:00:00 4,8 2,0 - 32 18 50 27 E 1015,8 -
01.10.2020 03:00:00 4,9 1,7 - 34 18 45 25 E 1015,8 -
01.10.2020 02:00:00 4,8 2,0 - 29 16 42 23 E 1016,2 40
01.10.2020 01:00:00 5,3 2,3 - 32 18 48 26 ENE 1016,1 -
01.10.2020 00:00:00 5,1 2,7 - 28 15 40 22 ENE 1016,0 -
30.09.2020 23:00:00 5,1 3,2 - 30 16 39 21 ENE 1016,0 35
30.09.2020 22:00:00 4,4 2,5 - 10 5 28 15 NNE 1015,9 -
30.09.2020 21:00:00 4,9 3,0 - 14 7 37 20 N 1015,4 -
30.09.2020 20:00:00 4,1 2,5 - 23 12 40 22 N 1015,4 30
30.09.2020 19:00:00 2,8 1,5 - 28 15 44 24 N 1015,7 -
30.09.2020 18:00:00 4,1 2,3 - 26 14 38 20 N 1014,8 -
30.09.2020 17:00:00 4,0 2,4 - 17 9 29 16 N 1014,4 25
30.09.2020 16:00:00 3,5 2,1 - 22 12 41 22 N 1014,2 -
30.09.2020 15:00:00 2,7 1,6 - 30 16 44 24 N 1014,0 -
30.09.2020 14:00:00 2,5 1,5 3,2 34 18 46 25 N 1013,4 20
30.09.2020 13:00:00 2,4 1,3 - 29 16 38 21 N 1013,3 -
30.09.2020 12:00:00 2,5 1,4 - 24 13 41 22 N 1013,2 -
30.09.2020 11:00:00 2,0 1,0 - 32 17 44 24 N 1012,5 20
30.09.2020 10:00:00 1,8 0,5 - 35 19 43 23 N 1011,7 -
30.09.2020 09:00:00 1,7 0,2 - 28 15 37 20 N 1011,1 -
30.09.2020 08:00:00 2,8 1,5 - 20 11 31 17 N 1010,7 20
30.09.2020 07:00:00 3,0 1,4 - 10 6 14 7 N 1010,0 -
30.09.2020 06:00:00 2,3 0,7 - 5 3 6 3 N 1009,5 -
30.09.2020 05:00:00 2,2 0,3 - 1 0 6 4 N 1009,2 -
30.09.2020 04:00:00 2,1 0,0 - 4 2 14 7 WSW 1008,8 -
30.09.2020 03:00:00 2,3 0,1 - 11 6 31 17 SW 1008,2 -
30.09.2020 02:00:00 2,1 -0,2 - 24 13 34 19 SW 1007,4 20
30.09.2020 01:00:00 2,2 -0,3 - 27 15 46 25 SSW 1006,7 -
30.09.2020 00:00:00 2,3 -0,1 - 29 16 48 26 SSW 1006,2 -
29.09.2020 23:00:00 - - - - - - - - - -
29.09.2020 22:00:00 - - - - - - - - - -
29.09.2020 21:00:00 2,4 -0,6 - 40 22 65 35 SSW 1003,0 -
29.09.2020 20:00:00 2,3 -0,8 - 48 26 76 41 SSW 1001,7 20
29.09.2020 19:00:00 - - - - - - - - - -
29.09.2020 18:00:00 2,5 -0,4 - 43 23 76 41 SSW 999,7 -
29.09.2020 17:00:00 2,7 0,1 - 51 27 72 39 SSW 998,6 20
29.09.2020 16:00:00 - - - - - - - - - -
29.09.2020 15:00:00 2,5 0,2 - 50 27 67 36 SSW 996,7 -
29.09.2020 14:00:00 2,4 1,0 3,5 49 26 61 33 SSW 995,8 10
29.09.2020 13:00:00 2,5 1,1 - 46 25 61 33 SSW 994,9 -
29.09.2020 12:00:00 - - - - - - - - - -
29.09.2020 11:00:00 3,2 2,3 - 39 21 52 28 SSW 993,2 20
29.09.2020 10:00:00 3,8 3,3 - 31 17 42 23 SSW 992,2 -
29.09.2020 09:00:00 4,4 4,1 - 18 10 25 13 S 991,6 -
29.09.2020 08:00:00 4,4 4,0 - 6 3 10 6 S 991,2 0,2
29.09.2020 07:00:00 4,4 4,0 - 4 2 6 4 S 991,2 -
29.09.2020 06:00:00 4,5 4,2 - 3 1 5 3 SSE 991,3 -
29.09.2020 05:00:00 4,7 4,3 - 3 1 6 3 SSE 991,7 -
29.09.2020 04:00:00 4,9 4,6 - 2 1 9 5 NE 991,9 -
29.09.2020 03:00:00 4,8 4,4 - 2 1 7 4 E 992,6 -
29.09.2020 02:00:00 4,7 4,4 - 8 5 15 8 ESE 993,2 0,8
29.09.2020 01:00:00 - - - - - - - - - -
29.09.2020 00:00:00 5,1 4,8 - 1 1 12 6 NE 994,1 -
28.09.2020 23:00:00 5,3 5,0 - 6 3 24 13 S 994,6 -
28.09.2020 22:00:00 5,2 4,9 - 4 2 13 7 SW 994,9 -
28.09.2020 21:00:00 4,8 4,5 - 2 1 13 7 WNW 995,5 -
28.09.2020 20:00:00 4,7 4,4 - 5 3 15 8 ESE 995,7 0,8
28.09.2020 19:00:00 4,6 4,3 - 8 4 27 15 SSE 996,1 -
28.09.2020 18:00:00 - - - - - - - - - -
28.09.2020 17:00:00 4,8 4,5 - 10 5 34 18 ESE 997,0 2,0
28.09.2020 16:00:00 5,1 4,7 - 27 15 35 19 E 997,4 -
28.09.2020 15:00:00 5,1 4,7 - 29 16 40 22 E 998,0 -
28.09.2020 14:00:00 5,2 4,7 3,4 31 17 46 25 E 998,8 1,7
28.09.2020 13:00:00 5,2 4,6 - 34 18 44 24 E 999,6 -
28.09.2020 12:00:00 5,1 4,5 - 31 17 41 22 E 1000,2 -
28.09.2020 11:00:00 4,6 4,0 - 26 14 35 19 ESE 1001,1 20
28.09.2020 10:00:00 4,7 4,0 - 30 16 38 21 ESE 1001,5 -
28.09.2020 09:00:00 4,5 3,7 - 27 15 35 19 ESE 1001,8 -
28.09.2020 08:00:00 4,4 3,7 - 21 11 26 14 ESE 1002,3 9
28.09.2020 07:00:00 - - - - - - - - - -
28.09.2020 06:00:00 4,6 3,8 - 24 13 30 16 SSE 1003,1 -
28.09.2020 05:00:00 - - - - - - - - - -
28.09.2020 04:00:00 4,9 4,0 - 32 17 40 22 S 1003,7 -
28.09.2020 03:00:00 4,9 4,0 - 30 16 37 20 S 1004,1 -
28.09.2020 02:00:00 4,9 4,1 - 28 15 36 20 S 1004,5 10
28.09.2020 01:00:00 4,9 4,2 - 30 16 37 20 S 1005,0 -
28.09.2020 00:00:00 4,9 4,2 - 31 17 39 21 S 1005,2 -
27.09.2020 23:00:00 4,9 4,3 - 25 14 36 19 S 1005,7 -
27.09.2020 22:00:00 4,9 3,9 - 29 15 46 25 SSW 1005,9 -
27.09.2020 21:00:00 5,0 4,5 - 40 21 50 27 S 1005,9 -
27.09.2020 20:00:00 4,8 4,3 - 33 18 54 29 SSW 1005,7 2,0
27.09.2020 19:00:00 4,9 4,5 - 23 13 29 16 SSW 1005,7 -
27.09.2020 18:00:00 5,0 4,6 - 16 9 24 13 S 1005,9 -
27.09.2020 17:00:00 5,0 4,5 - 17 9 26 14 S 1006,1 2,0
27.09.2020 16:00:00 5,3 4,9 - 18 10 27 15 SSW 1006,5 -
27.09.2020 15:00:00 5,2 4,9 - 22 12 32 17 SSW 1006,6 -
27.09.2020 14:00:00 4,9 4,6 3,5 22 12 29 15 S 1006,8 1,5
27.09.2020 13:00:00 5,1 4,8 - 18 10 35 19 S 1006,9 -
27.09.2020 12:00:00 5,2 4,9 - 24 13 38 20 SSW 1006,7 -
27.09.2020 11:00:00 5,2 5,0 - 27 15 36 20 SSW 1006,6 0,4
27.09.2020 10:00:00 - - - - - - - - - -
27.09.2020 09:00:00 5,3 4,9 - 27 15 38 21 SSW 1006,2 -
27.09.2020 08:00:00 5,3 4,9 - 30 16 47 25 SSW 1005,9 3,0
27.09.2020 07:00:00 5,2 4,8 - 31 17 38 21 SSW 1005,9 -
27.09.2020 06:00:00 4,7 4,3 - 24 13 32 17 SSW 1006,2 -
27.09.2020 05:00:00 4,7 4,4 - 22 12 31 17 SSW 1006,6 -
27.09.2020 04:00:00 4,6 4,2 - 16 9 26 14 S 1007,2 -
27.09.2020 03:00:00 4,7 4,2 - 26 14 35 19 S 1007,7 -
27.09.2020 02:00:00 4,9 4,2 - 31 17 - - S 1008,4 25
27.09.2020 01:00:00 4,6 3,8 - 24 13 27 14 S 1009,0 -
27.09.2020 00:00:00 4,7 3,9 - 23 13 31 17 S 1009,3 -
26.09.2020 23:00:00 4,5 3,6 - 27 15 31 17 SSW 1009,3 10
26.09.2020 22:00:00 4,5 3,6 - 21 12 28 15 SSW 1009,4 -
26.09.2020 21:00:00 4,4 3,5 - 24 13 31 17 SSW 1009,6 -
26.09.2020 20:00:00 4,6 3,6 - 17 9 27 15 SSW 1010,1 8
26.09.2020 19:00:00 4,4 3,4 - 14 7 23 12 SSW 1010,1 -
26.09.2020 18:00:00 4,3 2,5 - 10 5 21 11 SSW 1010,9 -
26.09.2020 17:00:00 4,3 1,7 - 14 7 29 15 SSW 1011,2 35
26.09.2020 16:00:00 4,1 1,5 - 19 10 30 16 SSW 1011,4 -
26.09.2020 15:00:00 3,8 0,3 - 25 13 43 23 SSW 1011,5 -
26.09.2020 14:00:00 3,4 -0,1 3,4 23 12 31 17 SSW 1011,6 30
26.09.2020 13:00:00 2,7 -1,4 - 18 10 32 17 SW 1011,5 -
26.09.2020 12:00:00 2,5 -2,3 - 14 8 39 21 WSW 1011,1 -
26.09.2020 11:00:00 2,1 -1,0 - 26 14 41 22 W 1011,0 20
26.09.2020 10:00:00 2,6 -1,6 - 21 11 37 20 WSW 1010,7 -
26.09.2020 09:00:00 2,7 -1,5 - 25 13 56 30 WSW 1010,5 -
26.09.2020 08:00:00 1,9 -0,9 - 32 17 54 29 WSW 1010,6 5
26.09.2020 07:00:00 1,5 -0,5 - 30 16 48 26 WSW 1010,5 -
26.09.2020 06:00:00 0,6 -0,3 - 18 10 25 13 SSW 1010,6 -
26.09.2020 05:00:00 0,1 -2,4 - 16 9 23 12 WSW 1010,8 -
26.09.2020 04:00:00 0,0 -2,6 - 15 8 29 16 WSW 1011,1 -
26.09.2020 03:00:00 -0,1 -2,9 - 22 12 48 26 WSW 1011,2 -
26.09.2020 02:00:00 0,3 -5,3 - 29 15 59 32 SW 1011,2 30
26.09.2020 01:00:00 0,0 -5,1 - 29 15 52 28 WSW 1011,3 -
26.09.2020 00:00:00 0,2 -4,1 - 25 14 41 22 WSW 1010,9 -
25.09.2020 23:00:00 - - - - - - - - - -
25.09.2020 22:00:00 0,9 -2,2 - 22 12 37 20 SW 1010,8 -
25.09.2020 21:00:00 1,2 0,4 - 35 19 47 26 S 1010,8 -
25.09.2020 20:00:00 1,0 -1,2 - 28 15 40 21 S 1012,2 4,0
25.09.2020 19:00:00 1,8 -3,1 - 25 14 32 18 S 1012,9 -
25.09.2020 18:00:00 1,3 -3,8 - 19 11 24 13 S 1013,7 -
25.09.2020 17:00:00 1,3 -4,9 - 8 4 14 7 SSW 1014,2 75
25.09.2020 16:00:00 1,0 -5,5 - 8 5 19 10 SSW 1014,8 -
25.09.2020 15:00:00 0,7 -5,8 - 9 5 19 10 SSW 1014,9 -
25.09.2020 14:00:00 0,5 -6,0 3,4 5 3 11 6 SW 1015,0 75

tt = temperature
td = dewpoint
tw = water temperature
ff = wind speed
fx = gusts
dd = wind direction
ppp = reduced air pressure
vv = visibility

Next stations